Regional Weather Roundup
Issued by NWS

Home | Current Version | Previous Version | Graphics & Text | Print | Product List | Glossary On
Versions: 1 2 3 4 5 6 7 8 9 10 11 12 13 14 15 16 17 18 19 20 21 22 23 24 25 26 27 28 29 30 31 32 33 34 35 36 37 38 39 40 41 42 43 44 45 46 47 48 49 50
583
ASUS45 KTFX 291610
RWRMT
MONTANA REGIONAL WEATHER ROUNDUP
NATIONAL WEATHER SERVICE GREAT FALLS MT
1000 AM MDT SUN MAY 29 2016

NOTE: "FAIR" INDICATES FEW OR NO CLOUDS BELOW 12000 FEET WITH NO
SIGNIFICANT WEATHER AND/OR OBSTRUCTIONS TO VISIBILITY.

MTZ001>007-043-291700-
WEST OF THE DIVIDE

CITY           SKY/WX    TMP DP  RH WIND       PRES   REMARKS
KALISPELL      PTSUNNY   53  39  59 VRB5      30.03F
MISSOULA       MOSUNNY   52  39  61 VRB5      30.08F
BUTTE          SUNNY     52  34  50 CALM      30.12F
MULLAN PASS    MOSUNNY   47  34  60 VRB6      30.07S
ANACONDA         N/A     61  34  36 SE8       30.08F
DEER LODGE       N/A     54  39  58 CALM      30.10F
EUREKA           N/A     54  39  58 CALM      30.03F
HAMILTON         N/A     55  37  50 CALM      30.06F
LIBBY            N/A     52  39  62 CALM      30.03F
$$

MTZ008-052>055-291700-
SOUTHWEST MONTANA

CITY           SKY/WX    TMP DP  RH WIND       PRES   REMARKS
BOZEMAN        SUNNY     58  41  53 CALM      30.10F
DILLON         SUNNY     54  34  46 W6        30.11S
W YELLOWSTONE  SUNNY     48  32  53 CALM      30.20F
ENNIS          SUNNY     61  30  31 S12G18    30.15F
$$

MTZ009-010-012-014-046-048-049-054-291700-
EAST SLOPES AND CENTRAL MONTANA

CITY           SKY/WX    TMP DP  RH WIND       PRES   REMARKS
CUT BANK       MOSUNNY   57  34  41 SW17      29.98F
GREAT FALLS    SUNNY     63  35  35 SW15G23   30.02F
MALMSTROM AFB  SUNNY     62  37  38 SW18G25   30.01F
HELENA         SUNNY     56  37  49 VRB3      30.07F
CHOTEAU          N/A     57  36  44 SW7       30.01F
$$

MTZ011-013-016-021-045-047-050-051-291700-
NORTH CENTRAL MONTANA

CITY           SKY/WX    TMP DP  RH WIND       PRES   REMARKS
HAVRE          SUNNY     62  41  46 SW13      29.97F
LEWISTOWN      SUNNY     62  32  32 W9        30.05F
N BAR RANCH      N/A     63  34  34 NW14      30.07F
CHINOOK          N/A     61  41  48 CALM      29.98F
$$

MTZ017>020-022>027-061-062-291700-
NORTHEAST MONTANA

CITY           SKY/WX    TMP DP  RH WIND       PRES   REMARKS
GLASGOW        SUNNY     60  40  47 W6        30.00F
JORDAN           N/A     66  39  37 MISG      30.02F
SIDNEY         SUNNY     68  46  45 SE8       30.01F
WOLF POINT     SUNNY     64  41  42 SW7       30.01F
PLENTYWOOD       N/A     64  39  39 W10       29.99F
POPLAR           N/A     63  43  48 SW7       30.01F
$$

MTZ028>42-056>058-291700-
SOUTHCENTRAL AND SOUTHEAST MONTANA

CITY           SKY/WX    TMP DP  RH WIND       PRES   REMARKS
BAKER          SUNNY     69  43  38 SW14      30.05F
BILLINGS       MOSUNNY   61  46  57 SW7       30.07S
LIVINGSTON     SUNNY     61  35  37 W17       30.07F
MILES CITY     SUNNY     64  44  48 CALM      30.03F
FORSYTH          N/A     64  46  52 CALM      30.03F
$$

REGIONAL REPORTS...DAKOTAS

CITY           SKY/WX    TMP DP  RH WIND       PRES   REMARKS
WILLISTON      SUNNY     66  41  40 SW10      30.01S
MINOT          SUNNY     72  45  37 W10       29.97S
DICKINSON      SUNNY     67  41  38 VRB3      30.03F
BEACH            N/A     66  41  39 W7        30.07S
CROSBY           N/A     64  43  45 W13G21    30.00S
WATFORD CITY     N/A     66  39  37 W12       30.03S
BISMARCK       SUNNY     69  52  54 W10       30.03S
GRAND FORKS    CLOUDY    65  56  72 NW9       29.93S
FARGO          CLOUDY    67  57  70 W10       29.95R
BUFFALO SD       N/A     70  46  42 CALM      30.00F
RAPID CITY     PTSUNNY   64  49  57 S6        30.10F
$$

REGIONAL REPORTS...WYOMING/IDAHO/WASHINGTON

CITY           SKY/WX    TMP DP  RH WIND       PRES   REMARKS
GILLETTE       MOSUNNY   65  46  50 S13       30.10F
SHERIDAN       SUNNY     67  48  50 VRB5      30.08F
BUFFALO WY     SUNNY     63  45  51 S12       30.12F
CODY           SUNNY     63  32  31 S12       30.11S
YELLOWSTONE LA   N/A     42  28  57 E3        30.26F
IDAHO FALLS    SUNNY     57  37  47 VRB3      30.14F
SALMON         SUNNY     52  36  54 CALM      30.10F
BOISE          SUNNY     67  32  27 SE12      30.04F
SPOKANE        PTSUNNY   59  42  53 S12       29.99S
$$

REGIONAL REPORTS...ALBERTA

CITY           SKY/WX    TMP DP  RH WIND       PRES   REMARKS
EDMONTON       SUNNY     59  45  58 E10       29.84F
CALGARY        MOSUNNY   59  30  33 W5        29.87S
LETHBRIDGE     MOSUNNY   61  37  41 W24G31    29.92F
MEDICINE HAT   MOSUNNY   64  37  36 SW22      29.90F
WATERTON GATE    N/A     52  36  54 SW12G20     N/A
MILK RIVER       N/A     61  36  39 W15G21      N/A
$$

REGIONAL REPORTS...SASKATCHEWAN

CITY           SKY/WX    TMP DP  RH WIND       PRES   REMARKS
SWIFT CURRENT  SUNNY     59  41  51 W16       29.92F
REGINA         MOSUNNY   61  50  67 SW8       29.93F
SASKATOON      MOSUNNY   59  52  77 SW5       29.90S
CYPRESS HILLS    N/A     54  32  43 SW9         N/A
VAL MARIE        N/A     61  37  41 SW10        N/A
ROCKGLEN         N/A     61  37  41 W12         N/A
$$




USA.gov is the U.S. government's official web portal to all federal, state and local government web resources and services.